Home   Weather   Taiyuan   Past weeks

Flag for China Past Weather in Taiyuan, Shanxi, China — Yesterday and Last 2 Weeks

Now
55 °F

Fog.


Feels Like: 55 °F
Forecast: 54 / 78 °F
Wind: 1 mph from East

Location: Taiyuan Airport

Current Time: Sep 25, 2016 at 5:08:27 AM

Latest Report: Sep 25, 2016 at 4:30 AM


Visibility: 2 mi

Pressure: 29.95 "Hg (27.25 "Hg at 790m altitude)

Humidity: 88%

Dew Point: 52 °F

Location of TaiyuanLocation

Past Weather in Taiyuan — Graph

°F

Taiyuan Temperature Yesterday

Maximum temperature yesterday: 79 °F (at 2:00 PM)
Minimum temperature yesterday: 57 °F (at 4:30 AM)
Average temperature yesterday: 68 °F

High & Low Weather Summary for the Past Weeks

 TemperatureHumidityPressure
High84 °F (Sep 15, 2:00 PM)100% (Sep 14, 5:00 AM)30.27 "Hg (Sep 14, 5:00 AM)
Low52 °F (Sep 20, 5:30 AM)23% (Sep 14, 3:30 PM)29.86 "Hg (Sep 23, 4:30 PM)
Average67 °F67%30.06 "Hg
* Reported Sep 10 4:00 AM — Sep 25 4:00 AM, Taiyuan, Weather by CustomWeather, © 2016

Note: Actual official high and low records may vary slightly from our data, if they occured in-between our weather recording intervals... More about our weather records

Advertising

Taiyuan Weather History for the Previous 24 Hours

Scroll right to see more
 ConditionsComfort  
Time TempWeatherWind HumidityBarometerVisibility
4:00 AM
Sun, Sep 25
57 °FFog.1 mph88%29.95 "Hg2 mi
3:30 AM59 °FFog.1 mph88%29.95 "Hg2 mi
3:00 AM61 °FFog.1 mph83%29.95 "Hg2 mi
2:30 AM59 °FFog.1 mph88%29.95 "Hg2 mi
2:00 AM61 °FFog.1 mph83%29.95 "Hg3 mi
1:30 AM59 °FFog.3 mph82%29.95 "Hg2 mi
1:00 AM61 °FFog.1 mph83%29.95 "Hg3 mi
12:30 AM61 °FFog.3 mph83%29.95 "Hg3 mi
12:00 AM63 °FFog.3 mph77%29.95 "Hg3 mi
11:30 PM
Sat, Sep 24
61 °FFog.3 mph83%29.95 "Hg3 mi
11:00 PM63 °FHaze.1 mph77%29.95 "Hg3 mi
10:30 PM63 °FHaze.1 mph77%29.95 "Hg3 mi
10:00 PM64 °FHaze.3 mph78%29.92 "Hg3 mi
9:30 PM64 °FHaze.1 mph78%29.92 "Hg3 mi
9:00 PM66 °FHaze.3 mph73%29.92 "Hg3 mi
8:30 PM66 °FHaze.1 mph73%29.92 "Hg3 mi
8:00 PM68 °FHaze.3 mph69%29.92 "Hg3 mi
7:30 PM70 °FHaze.1 mph64%29.89 "Hg3 mi
7:00 PM70 °FClear.1 mph60%29.89 "Hg4 mi
6:30 PM72 °FClear.1 mph61%29.89 "Hg5 mi
6:00 PM75 °FSunny.1 mph54%29.89 "Hg10 mi
5:30 PM79 °FSunny.3 mph42%29.89 "Hg10 mi
5:00 PM79 °FSunny.3 mph39%29.89 "Hg10 mi
4:30 PM79 °FPassing clouds.6 mph42%29.89 "HgN/A
4:00 PM79 °FPassing clouds.3 mph39%29.89 "HgN/A
3:30 PM79 °FPassing clouds.6 mph42%29.89 "HgN/A
3:00 PM79 °FPassing clouds.6 mph45%29.89 "HgN/A
2:30 PM79 °FPassing clouds.6 mph45%29.89 "HgN/A
2:00 PM79 °FPassing clouds.3 mph45%29.92 "HgN/A
1:30 PM77 °FClear.3 mph47%29.92 "Hg5 mi
1:00 PM77 °FClear.6 mph47%29.92 "Hg5 mi
12:30 PM75 °FClear.3 mph50%29.92 "Hg4 mi
12:00 PM75 °FClear.6 mph47%29.95 "Hg4 mi
11:30 AM75 °FClear.3 mph50%29.95 "Hg4 mi
11:00 AM73 °FClear.3 mph53%29.95 "Hg4 mi
10:30 AM72 °FClear.3 mph57%29.98 "Hg4 mi
10:00 AM70 °FClear.3 mph64%29.98 "Hg4 mi
9:30 AM68 °FClear.3 mph69%29.98 "Hg4 mi
9:00 AM66 °FHaze.3 mph73%29.98 "Hg3 mi
8:30 AM64 °FHaze.1 mph73%29.95 "Hg3 mi
8:00 AM64 °FFog.No wind73%29.95 "Hg2 mi
7:30 AM61 °FFog.3 mph83%29.95 "Hg2 mi
7:00 AM57 °FFog.1 mph88%29.95 "Hg2 mi
6:30 AM57 °FFog.1 mph88%29.95 "Hg3 mi
6:00 AM57 °FFog.3 mph88%29.95 "Hg3 mi
5:30 AM59 °FFog.6 mph82%29.95 "Hg3 mi
5:00 AM57 °FFog.3 mph88%29.95 "Hg3 mi
Weather by CustomWeather, © 2016

See weather overviewHow to use our weather pages